Regional Weather Roundup
Issued by NWS

Home | Current Version | Previous Version | Text Only | Print | Product List | Glossary Off
Versions: 1 2 3 4 5 6 7 8 9 10 11 12 13 14 15 16 17 18 19 20 21 22 23 24 25 26 27 28 29 30 31 32 33 34 35 36 37 38 39 40 41 42 43 44 45 46 47 48 49 50

000
ASUS45 KBOI 130610
RWRID

IDAHO REGIONAL WEATHER ROUNDUP
NATIONAL WEATHER SERVICE BOISE ID
1100 PM MST FRI FEB 12 2016

NOTE: "FAIR" INDICATES FEW OR NO CLOUDS BELOW 12000 FEET
WITH NO SIGNIFICANT WEATHER AND/OR OBSTRUCTIONS TO VISIBILITY

IDZ012-014-130700-
SOUTHWEST IDAHO


CITY           SKY/WX    TMP DP  RH WIND       PRES   REMARKS
BOISE          CLOUDY    39  32  76 S6        30.18F WCI  35
CALDWELL       CLOUDY    37  33  85 S3        30.20F
MOUNTAIN HOME  CLOUDY    38  30  72 SE8       30.19S WCI  33
$$

IDZ016-017-130700-
SOUTHCENTRAL IDAHO


CITY           SKY/WX    TMP DP  RH WIND       PRES   REMARKS
BURLEY         MOCLDY    30  28  92 SE5       30.18F WCI  25
JEROME         MOCLDY    31  26  82 NE17      30.19F WCI  19
TWIN FALLS     MOCLDY    33  30  88 NW5       30.19F WCI  29
$$

IDZ019>023-130700-
SOUTHEAST IDAHO


CITY           SKY/WX    TMP DP  RH WIND       PRES   REMARKS
IDAHO FALLS    CLOUDY    21  18  88 N3        30.23F FOG
POCATELLO      CLOUDY    28  24  85 N3        30.24F
REXBURG        CLOUDY    29  26  89 CALM      30.22F
$$

IDZ006-010-011-018-031-032-130700-
CENTRAL IDAHO MOUNTAINS


CITY           SKY/WX    TMP DP  RH WIND       PRES   REMARKS
MCCALL         CLOUDY    31  29  92 CALM      30.13F
HAILEY         CLOUDY    32  30  93 N3        30.23F
STANLEY          N/A     36  29  75 CALM      30.19R
SALMON         CLOUDY    28  25  86 CALM      30.16F
CHALLIS        MOCLDY    27  24  89 CALM      30.16S
$$

IDZ002-004-006-007-026-130700-
NORTHERN IDAHO


CITY           SKY/WX    TMP DP  RH WIND       PRES   REMARKS
LEWISTON       LGT RAIN  48  43  82 NW10G22   30.15R
LOWELL           N/A     41  39  93 CALM      30.15R
COEUR D`ALENE  CLOUDY    43  39  87 SE7       30.06S
MULLAN PASS    HVY SNOW  32  32 100 VRB5      30.05R VSB 1/4 WCI  27
$$



USA.gov is the U.S. government's official web portal to all federal, state and local government web resources and services.